Activity Log for Mar, 10 2020

Back to Activity Log Search


Incident Time Nature Address
20F027555 00:04:35 103 UNWANTED 54XX S ANTHONY BLVD
20F027556 00:08:36 30 TRAFFIC STOP LIMA RD & E FERNHILL AVE
20F027557 00:10:04 30 TRAFFIC STOP VANCE AVE & WALDEN RUN
20F027558 00:10:51 40A AUDIBLE 54XX POTOMAC DR
20F027559 00:17:55 30 TRAFFIC STOP TENNESSEE AVE & KENTUCKY AVE
20F027560 00:18:22 30 TRAFFIC STOP S HANNA ST & HAYDEN ST
20F027561 00:20:46 40A AUDIBLE 10XX WOODLAND PLAZA RUN
20F027562 00:22:24 102,TX THREATS 22XX FILLMORE ST
20F027563 00:31:25 103 UNWANTED 19XX BROADWAY
20F027564 00:39:16 30 TRAFFIC STOP E STATE BLVD & LAHMEYER RD
20F027565 00:40:52 25 PD ACCIDENT ARDMORE AVE & THREE OAKS DR
20F027566 00:43:06 40A AUDIBLE 42XX COLDWATER RD
20F027567 00:55:01 40A AUDIBLE 22XX PRODUCTION RD
20F027568 01:03:27 30 TRAFFIC STOP E COLISEUM BLVD & CRESCENT AVE
20F027569 01:04:05 30 TRAFFIC STOP E COLISEUM BLVD & CRESCENT AVE
20F027570 01:15:04 40A AUDIBLE 47XX LIMA RD
20F027571 01:20:43 41 MAN DOWN 9XX S CLINTON ST
20F027572 01:22:33 48 SUSPICIOUS 10XX W COLISEUM BLVD
20F027573 01:31:37 34 TRAFF HAZARD 85XX COLDWATER RD
20F027575 01:59:27 42 INTOX PERSON 86XX W JEFFERSON BLVD
20F027574 02:02:33 30 TRAFFIC STOP OXFORD ST & ABBOTT ST
20F027576 02:05:36 30 TRAFFIC STOP W COLISEUM BLVD & HILLEGAS RD
20F027577 02:08:01 40A AUDIBLE 64XX WINCHESTER RD
20F027578 02:11:05 30 TRAFFIC STOP W JEFFERSON BLVD & EWING ST
20F027580 02:20:44 44LM 6XX FIFTH ST
20F027579 02:21:24 30 TRAFFIC STOP COLERICK ST & EUCLID AVE
20F027581 02:23:10 44 NUISANCE 42XX WOODSTOCK DR
20F027582 02:26:22 40A AUDIBLE 77XX LIMA RD
20F027584 02:40:08 30 TRAFFIC STOP E STATE BLVD & BEACON ST
20F027585 03:00:07 EMS 29XX GOSHEN RD
20F027586 03:12:47 40A AUDIBLE 4XX W FERNHILL AVE
20F027587 03:26:21 30 TRAFFIC STOP S COLISEUM BLVD AND E WASHINGTON B
20F027588 03:29:06 113 SHOTS FIRED 21XX EDGEHILL AVE
20F027589 03:32:47 27 RECKLESS DRI LIMA RD & W WALLEN RD
20F027590 03:35:15 30 TRAFFIC STOP 18XX WAYSIDE DR
20F027591 03:38:30 43 DISTURBANCE 7XX BROADWAY
20F027592 03:40:28 40H HOLDUP ALRM 5XX E COLISEUM BLVD
20F027593 03:42:36 30 TRAFFIC STOP 15XX E WASHINGTON BLVD
20F027594 03:49:21 48 SUSPICIOUS 17XX APPLE GLEN BLVD
20F027595 03:52:51 103 UNWANTED 27XX W COLISEUM BLVD
20F027596 03:54:19 40A AUDIBLE 7XX E DUPONT RD
20F027597 03:56:08 30 TRAFFIC STOP 6XX W BERRY ST
20F027599 04:05:58 66 MENTALLY ILL 13XX BOONE ST
20F027598 04:06:48 48 SUSPICIOUS 10XX WAKEFIELD AVE
20F027600 04:30:10 48 SUSPICIOUS 10XX WAKEFIELD AVE
20F027601 04:43:53 65T SUICIDE THR 27XX REYNOLDS ST
20F027602 04:45:06 46 DOMESTIC 16XX E COOK RD
20F027603 04:57:30 48 SUSPICIOUS 17XX CORTLAND AVE
20F027604 05:47:24 25 PD ACCIDENT S HILLEGAS RD & W JEFFERSON BLVD
20F027606 05:49:03 14 WARRANT 22XX RANDALLIA DR
20F027605 05:49:42 34 TRAFF HAZARD AIRPORT EXPRESSWAY & WINCHESTER RD
20F027607 06:00:27 66 MENTALLY ILL 73XX LINDA DR
20F027608 06:07:57 25 PD ACCIDENT E WAYNE TRACE & S ANTHONY BLVD
20F027609 06:18:06 33,34 S ANTHONY BLVD & MAUMEE AVE
20F027610 06:23:40 101 OPEN DOOR 15XX KITCH ST
20F027611 06:32:08 30 TRAFFIC STOP NUTTMAN AVE & BEAVER AVE
20F027612 06:41:59 34 TRAFF HAZARD 68XX N CLINTON ST
20F027613 06:53:23 25 PD ACCIDENT HOAGLAND AVE & W FAIRFAX AVE
20F027614 06:57:27 25 PD ACCIDENT 68XX N CLINTON ST
20F027621 07:10:07 18 WORK TRAFFIC TRIER RD & FERNBANK DR
20F027619 07:10:33 18 WORK TRAFFIC W STATE BLVD & TYLER AVE
20F027622 07:10:55 18 WORK TRAFFIC W PONTIAC ST & FAIRFIELD AVE
20F027620 07:11:18 18 WORK TRAFFIC VANCE AVE & DEVON DR
20F027615 07:13:22 25 PD ACCIDENT SPEEDWAY DR & W COLISEUM BLVD
20F027616 07:19:37 51,ATTEMPTED OLIVER ST & SMITH ST
20F027617 07:26:06 26 PI ACCIDENT MAPLECREST RD & ROTHMAN RD
20F027618 07:30:04 129 7XX WALNUT ST
20F027624 07:40:40 96JO 2XX E PETTIT AVE
20F027625 07:45:30 46 DOMESTIC 32XX S ANTHONY BLVD
20F027626 07:47:39 16,97 MAPLECREST RD & ROTHMAN RD
20F027627 07:51:05 43 DISTURBANCE 3XX E SUPERIOR ST
20F027628 07:53:23 40A AUDIBLE 41XX W JEFFERSON BLVD
20F027641 07:53:44 51 THEFT 1XX E SUTTENFIELD AVE
20F027629 08:01:10 46 DOMESTIC 18XX RIEDMILLER AVE
20F027630 08:02:01 22RC RECOVERY 25XX BROKEN ARROW DR
20F027631 08:09:36 62 PARTY ARMED E PONTIAC ST & RADCLIFFE DR
20F027640 08:13:39 22I JUV INVEST 54XX S CALHOUN ST
20F027632 08:16:33 15 ASSIST 11XX FAYETTE DR
20F027639 08:18:48 33 DISABLED VEH 315XX I 69 SB
20F027633 08:32:02 25 PD ACCIDENT COVINGTON RD & GETZ RD
20F027634 08:32:06 25 PD ACCIDENT GETZ RD & COVINGTON RD
20F027636 08:32:38 48,36 8XX E DUPONT RD
20F027635 08:32:46 23,35 VAND VEH 4XX TREELINE CV
20F027637 08:33:14 EMS 4XX FAIRWICK LN
20F027642 08:43:11 43 DISTURBANCE 28XX FAIRFIELD AVE
20F027645 08:44:55 63 CONTACT 25XX HOLTON AVE
20F027643 08:45:12 25 PD ACCIDENT 70XX COLDWATER RD
20F027644 08:45:27 40A AUDIBLE 55XX WINTER ST
20F027646 08:50:48 XX E MAIN ST
20F027647 08:57:41 37 PARKING VIOL 4XX E DEWALD ST
20F027648 09:00:55 40A AUDIBLE 100XX ACORN LN
20F027649 09:03:38 17 MOTOR CHECK 51XX S CALHOUN ST
20F027650 09:05:01 39JO 8XX POPLAR ST
20F027651 09:07:31 22RC RECOVERY 26XX BOARDWALK CIR
20F027654 09:07:47 51,35 29XX SCHELE AVE
20F027652 09:09:27 113 SHOTS FIRED 33XX ALEXANDER ST
20F027653 09:10:24 41,36 REDBUD DR & CINNAMON RD
20F027655 09:12:31 30 TRAFFIC STOP W STATE BLVD & ANDREW ST
20F027656 09:13:28 XX E MAIN ST
20F027657 09:15:00 113 SHOTS FIRED 27XX MCDONALD ST
20F027658 09:25:54 48 SUSPICIOUS 29XX SCHELE AVE
20F027659 09:26:35 51 THEFT 48XX COLDWATER RD
20F027660 09:27:39 65T SUICIDE THR 22XX HOLTON AVE
20F027661 09:32:17 34 TRAFF HAZARD E COLLINS RD & COLDWATER RD
20F027664 09:34:37 22I JUV INVEST 32XX S CLINTON ST
20F027663 09:37:25 48 SUSPICIOUS 88XX GULF DR
20F027662 09:39:24 51 THEFT 57XX MEADOWS DR
20F027665 09:40:35 ATL 53XX WHEELOCK RD
20F027666 09:50:00 25 PD ACCIDENT LIMA RD & W COOK RD
20F027667 09:53:49 48,35 E PETTIT AVE & GAYWOOD DR
20F027668 09:56:27 26 PI ACCIDENT 4XX W FERNHILL AVE
20F027669 09:57:20 40P PANIC ALARM 36XX BROOKLYN AVE
20F027670 09:58:41 63 CONTACT 46XX JASON DR
20F027671 10:02:13 30 TRAFFIC STOP 31XX ARDMORE AVE
20F027672 10:03:56 46 DOMESTIC 8XX DOLPHIN DR
20F027673 10:05:08 40A AUDIBLE 45XX COVENTRY PKWY
20F027674 10:12:27 108 FOLLOWUP 8XX DONNELL AVE
20F027676 10:18:56 46,96 91XX WINCHESTER RD
20F027675 10:19:15 51 THEFT 8XX ROLLINGWOOD LN
20F027678 10:21:43 50IP BURG I/P 16XX E LEWIS ST
20F027677 10:22:15 38 LOST/STOLEN 30XX N CLINTON ST
20F027680 10:23:09 48,35 7XX W PACKARD AVE
20F027679 10:23:10 15 ASSIST 8XX THIRD ST
20F027682 10:32:41 17 MOTOR CHECK 11XX AIRPORT NORTH OFFICE PARK
20F027681 10:33:44 25HS HIT SKIP 7XX KINNAIRD AVE
20F027683 10:36:05 129 5XX AIRPORT NORTH OFFICE PARK
20F027684 10:36:21 129 108XX LA CABREAH LN
20F027685 10:39:18 65T SUICIDE THR 46XX FAIRLAWN PASS
20F027686 10:41:15 HARASSMENT 26XX WILLOW OAKS DR
20F027687 10:44:28 17 MOTOR CHECK 71XX VENTURE LN
20F027688 10:48:06 41 MAN DOWN TAYLOR ST & FAIRFIELD AVE
20F027690 10:51:03 46,96 1XX W DEWALD ST
20F027689 10:52:07 1 MEET 67XX MIDFIELD DR
20F027691 10:57:43 26 PI ACCIDENT S CLINTON ST & E WAYNE ST
20F027692 10:59:31 17 MOTOR CHECK 13XX DIRECTORS ROW
20F027693 11:03:05 51,35 53XX COLDWATER RD
20F027695 11:03:40 911 HANG UP 46XX FAIRLAWN PASS
20F027694 11:05:47 51,35 10XX HAMILTON AVE
20F027696 11:17:17 25 PD ACCIDENT 10XX N COLISEUM BLVD
20F027697 11:23:42 102,TX THREATS 11XX LARCH LN
20F027698 11:26:03 1 MEET 29XX ENGLE RD
20F027699 11:27:58 30 TRAFFIC STOP W WASHINGTON CENTER RD & INDUSTRIA
20F027701 11:30:15 63 CONTACT XX COUNTRY FOREST DR
20F027700 11:32:57 63Z ZACH CHECK 15XX SEDDLEMEYER AVE
20F027702 11:45:56 47 REMOVE ITEMS 12XX SYLVIA ST
20F027705 11:49:32 15 ASSIST 13XX W FOURTH ST
20F027703 11:49:47 63 CONTACT 22XX WEBSTER ST
20F027706 11:49:51 40A AUDIBLE 16XX CHANNEL PL
20F027707 11:49:56 23 VANDALISM 31XX SMITH ST
20F027704 11:50:03 25 PD ACCIDENT E PAULDING RD & ADAMS CENTER RD
20F027708 11:56:11 23 VANDALISM 32XX LEROY AVE
20F027709 11:56:48 43 DISTURBANCE 18XX WENDMERE LN
20F027710 11:57:04 34 TRAFF HAZARD LIMA RD & PRODUCTION RD
20F027711 12:04:32 23,35 VAND VEH XX E MAIN ST
20F027712 12:05:43 25 PD ACCIDENT 30XX GOSHEN RD
20F027713 12:16:22 25 PD ACCIDENT 68XX BLUFFTON RD
20F027714 12:18:38 25 PD ACCIDENT W COLISEUM BLVD & EXECUTIVE BLVD
20F027716 12:25:02 37 PARKING VIOL 33XX WINTER ST
20F027717 12:28:24 1 MEET 5XX SPRING ST
20F027715 12:29:19 63 CONTACT 10XX TENNESSEE AVE
20F027718 12:35:10 25 PD ACCIDENT 62XX LIMA RD
20F027719 12:36:43 102 THREATS 64XX W JEFFERSON BLVD
20F027720 12:41:23 102,TX THREATS 55XX W US 30
20F027723 12:43:15 43 DISTURBANCE 1XX W COLISEUM BLVD
20F027721 12:47:54 40A AUDIBLE 47XX LAHMEYER RD
20F027722 12:49:06 25HS HIT SKIP 103XX MAYSVILLE RD
20F027728 12:55:58 HARASSMENT 30XX INDIANA AVE
20F027731 12:56:26 63 CONTACT 9XX GOSHEN AVE
20F027724 12:56:50 22I JUV INVEST 12XX E WASHINGTON CENTER RD
20F027725 12:57:08 22I JUV INVEST 12XX E WASHINGTON CENTER RD
20F027726 12:57:36 129 56XX N BROOKWOOD DR
20F027727 12:59:07 14S SERVING WAR 36XX PLAZA DR
20F027730 12:59:40 17 MOTOR CHECK 21XX STRATHMORE ST
20F027729 12:59:41 911 HANG UP 62XX BLUFFTON RD
20F027732 13:09:25 911 HANG UP 13XX S HARRISON ST
20F027734 13:13:35 66 MENTALLY ILL 52XX WEBSTER ST
20F027735 13:15:10 129 6XX OXFORD ST
20F027736 13:19:12 64 NOT SEEN 22XX BEACON ST
20F027737 13:22:35 22I JUV INVEST 23XX VANCE AVE
20F027738 13:34:03 25 PD ACCIDENT WELLS ST & SPRING ST
20F027739 13:38:52 41 MAN DOWN 11XX E TILLMAN RD
20F027740 13:42:13 43 DISTURBANCE 28XX BROADWAY
20F027741 13:47:32 43 DISTURBANCE 39XX S ANTHONY BLVD
20F027742 13:48:34 40A AUDIBLE 53XX INLAND TRL
20F027744 13:54:56 66 MENTALLY ILL 63XX HILLSIDE OAKS DR
20F027743 13:59:45 34 TRAFF HAZARD 23XX MEYER RD
20F027745 14:01:49 48 SUSPICIOUS 42XX COLDWATER RD
20F027747 14:03:54 46,96 49XX LIMA RD
20F027748 14:07:18 18 WORK TRAFFIC FERNBANK DR & TRIER RD
20F027749 14:07:42 48 SUSPICIOUS HUGUENARD RD & W LUDWIG RD
20F027766 14:07:42 18 WORK TRAFFIC SMITH ST & MCKINNIE AVE
20F027767 14:08:27 18 WORK TRAFFIC DEVON DR & VANCE AVE
20F027746 14:08:42 46 DOMESTIC 42XX FIELDBROOK PASS
20F027757 14:08:49 18 WORK TRAFFIC W STATE BLVD & TYLER AVE
20F027750 14:15:34 30 TRAFFIC STOP WAYNE TRACE & MCKINNIE AVE
20F027751 14:16:07 129 52XX STONECREEK TRL
20F027752 14:16:10 30 TRAFFIC STOP MCKINNIE AVE & REED ST
20F027753 14:19:33 30 TRAFFIC STOP SW ANTHONY WAYNE DR & CAPITOL AVE
20F027754 14:24:49 30 TRAFFIC STOP OXFORD ST & PLAZA DR
20F027759 14:25:09 51 THEFT XX E MAIN ST
20F027758 14:26:18 51 THEFT XX E MAIN ST
20F027760 14:26:42 51 THEFT XX E MAIN ST
20F027755 14:27:28 35 PARKED VEHIC 22XX FOX AVE
20F027761 14:28:07 51 THEFT XX E MAIN ST
20F027762 14:28:41 51 THEFT XX E MAIN ST
20F027763 14:29:07 51 THEFT XX E MAIN ST
20F027764 14:29:49 51 THEFT XX E MAIN ST
20F027756 14:30:13 30 TRAFFIC STOP OXFORD ST & LINDBERGH BLVD
20F027765 14:33:51 30 TRAFFIC STOP E RUDISILL BLVD & AVONDALE DR
20F027769 14:49:07 40P PANIC ALARM 74XX KERN VALLEY DR
20F027771 14:52:46 14S SERVING WAR 10XX LAKE AVE
20F027770 14:52:58 43 DISTURBANCE 27XX W COLISEUM BLVD
20F027772 14:54:37 26 PI ACCIDENT COLDWATER RD & E ESSEX LN
20F027784 14:55:32 43 DISTURBANCE 7XX PROSPECT AVE
20F027773 14:57:38 30 TRAFFIC STOP S CLINTON ST & E SUPERIOR ST
20F027774 14:58:16 26 PI ACCIDENT 15XX BLUFFTON RD
20F027777 14:59:02 25HS HIT SKIP BEAVER AVE & W OAKDALE DR
20F027775 14:59:24 30 TRAFFIC STOP S ANTHONY BLVD & E PAULDING RD
20F027776 14:59:52 30 TRAFFIC STOP W JEFFERSON BLVD & S LINDENWOOD AV
20F027779 15:01:17 103 UNWANTED 35XX W COLISEUM BLVD
20F027778 15:01:43 30 TRAFFIC STOP LAKE AVE & INWOOD DR
20F027780 15:02:11 48 SUSPICIOUS 50XX DECATUR RD
20F027781 15:03:53 30 TRAFFIC STOP 33XX E WASHINGTON BLVD
20F027782 15:03:59 30 TRAFFIC STOP 29XX SMITH RD
20F027783 15:06:54 66V MENTAL VIOL 63XX ST JOE CENTER RD
20F027785 15:10:10 48 SUSPICIOUS 8XX COLUMBIA AVE
20F027786 15:11:14 30 TRAFFIC STOP W JEFFERSON BLVD & ILLINOIS RD
20F027787 15:12:17 30 TRAFFIC STOP 4XX WELLS ST
20F027788 15:13:19 30 TRAFFIC STOP S CALHOUN ST & E SUPERIOR ST
20F027789 15:15:57 30 TRAFFIC STOP LAKE AVE & LOFTON WAY
20F027790 15:18:11 30 TRAFFIC STOP E WASHINGTON BLVD & MEYER RD
20F027804 15:19:03 17 MOTOR CHECK 14XX WELLS ST
20F027791 15:21:09 30 TRAFFIC STOP 39XX SMITH RD
20F027792 15:22:22 30 TRAFFIC STOP 6XX S CLINTON ST
20F027793 15:22:49 30 TRAFFIC STOP W JEFFERSON BLVD & S LINDENWOOD AV
20F027794 15:25:05 20 PROBLEM UNK 22XX CANDLEWICK DR
20F027795 15:25:15 25 PD ACCIDENT 70XX W JEFFERSON BLVD
20F027796 15:27:22 25 PD ACCIDENT 11XX GOSHEN AVE
20F027797 15:28:03 30 TRAFFIC STOP 34XX E WASHINGTON BLVD
20F027798 15:28:32 25 PD ACCIDENT 72XX S ANTHONY BLVD
20F027799 15:31:53 30 TRAFFIC STOP W JEFFERSON BLVD & ILLINOIS RD
20F027800 15:32:55 30 TRAFFIC STOP E BERRY ST & S CLINTON ST
20F027801 15:33:13 30 TRAFFIC STOP LAKE AVE & INWOOD DR
20F027802 15:34:32 22I JUV INVEST 4XX E STATE BLVD
20F027899 15:35:28 39U UNAUTHORIZE 39XX NADINA CV
20F027803 15:36:31 30 TRAFFIC STOP 29XX SMITH RD
20F027818 15:37:29 22I JUV INVEST 48XX TURBO TRL
20F027805 15:39:37 30 TRAFFIC STOP 32XX E WASHINGTON BLVD
20F027806 15:39:43 30 TRAFFIC STOP 24XX W JEFFERSON BLVD
20F027807 15:40:41 30 TRAFFIC STOP LAKE AVE & INWOOD DR
20F027810 15:41:48 63 CONTACT 27XX EVANS ST
20F027808 15:41:50 56 MOLESTING 12XX E WASHINGTON CENTER RD
20F027809 15:43:05 33,34 COVINGTON RD & W JEFFERSON BLVD
20F027813 15:46:39 17 MOTOR CHECK 7XX DREXEL AVE
20F027811 15:46:46 30 TRAFFIC STOP E PETTIT AVE & SPATZ AVE
20F027812 15:47:30 30 TRAFFIC STOP W JEFFERSON BLVD & ILLINOIS RD
20F027814 15:49:02 48 SUSPICIOUS 20XX BROADWAY
20F027815 15:52:24 30 TRAFFIC STOP LAKE AVE & LOFTON WAY
20F027816 15:55:15 30 TRAFFIC STOP 6XX S CLINTON ST
20F027817 15:55:37 30 TRAFFIC STOP W JEFFERSON BLVD & S LINDENWOOD AV
20F027819 16:01:27 30 TRAFFIC STOP S CLINTON ST & E BERRY ST
20F027820 16:02:52 109 DUMPING 17XX ST MARYS AVE
20F027839 16:05:45 17 MOTOR CHECK 14XX W WASHINGTON CENTER RD
20F027821 16:06:54 30 TRAFFIC STOP 55XX LAKE AVE
20F027822 16:07:01 30 TRAFFIC STOP W JEFFERSON BLVD & COLLEGE ST
20F027823 16:08:53 15 ASSIST 21XX BAYVIEW DR
20F027824 16:10:26 66 MENTALLY ILL 7XX EWING ST
20F027825 16:11:50 25 PD ACCIDENT OPPORTUNITY DR & W COOK RD
20F027826 16:13:00 30 TRAFFIC STOP 3XX S CLINTON ST
20F027827 16:14:13 43 DISTURBANCE E STATE BLVD & BEACON ST
20F027831 16:18:58 27 RECKLESS DRI BROADWAY & TAYLOR ST
20F027828 16:19:38 30 TRAFFIC STOP LAKE AVE & INWOOD DR
20F027830 16:20:00 46 DOMESTIC 11XX W STATE BLVD
20F027829 16:20:21 30 TRAFFIC STOP W JEFFERSON BLVD & S LINDENWOOD AV
20F027833 16:21:02 102 THREATS 35XX CENTRAL DR
20F027832 16:21:42 30 TRAFFIC STOP S LAFAYETTE ST & E MAIN ST
20F027836 16:24:47 46 DOMESTIC E STATE BLVD & PEMBERTON DR
20F027887 16:25:19 17 MOTOR CHECK 30XX UPPER ST JOE CENTER RD
20F027834 16:25:52 30 TRAFFIC STOP W JEFFERSON BLVD & S LINDENWOOD AV
20F027835 16:26:05 30 TRAFFIC STOP E WASHINGTON BLVD & S MONROE ST
20F027853 16:27:51 15 ASSIST 19XX HOBSON RD
20F027837 16:28:08 30 TRAFFIC STOP 6XX S CLINTON ST
20F027886 16:29:10 47 REMOVE ITEMS 83XX BEACON RIDGE PL
20F027838 16:29:16 30 TRAFFIC STOP FAIRFIELD AVE & W CREIGHTON AVE
20F027841 16:29:38 65T SUICIDE THR 23XX FLEETWOOD AVE
20F027840 16:29:51 30 TRAFFIC STOP ALEXANDER ST & COLERICK ST
20F027842 16:33:48 46 DOMESTIC 4XX E SUTTENFIELD AVE
20F027843 16:35:07 30 TRAFFIC STOP W JEFFERSON BLVD & S LINDENWOOD AV
20F027844 16:37:48 103 UNWANTED 2XX E PETTIT AVE
20F027845 16:38:06 96 BATTERY 7XX BROADWAY
20F027847 16:38:14 911 HANG UP 28XX E DUPONT RD
20F027846 16:39:17 30 TRAFFIC STOP LAKE AVE & LOFTON WAY
20F027849 16:39:48 40P PANIC ALARM 61XX COVINGTON RD
20F027848 16:40:48 30 TRAFFIC STOP W STATE BLVD & SHORT ST
20F027851 16:43:38 17R REREAD 60XX BLUFFTON RD
20F027850 16:45:55 46 DOMESTIC 3XX S SEMINOLE CIR
20F027883 16:46:26 16 PICK UP ITEM 42XX TRIER RD
20F027852 16:48:06 30 TRAFFIC STOP 6XX S CLINTON ST
20F027854 16:50:34 30 TRAFFIC STOP JACOBS AVE & N CLINTON ST
20F027855 16:51:06 30 TRAFFIC STOP EDITH AVE & ROSEMONT DR
20F027856 16:52:26 30 TRAFFIC STOP S ANTHONY BLVD & CAPITOL AVE
20F027857 16:52:57 46 DOMESTIC 11XX W WILDWOOD AVE
20F027858 16:54:09 30 TRAFFIC STOP N COLISEUM BLVD & LAKE AVE
20F027859 16:54:37 30 TRAFFIC STOP 32XX E WASHINGTON BLVD
20F027860 16:55:42 30 TRAFFIC STOP W JEFFERSON BLVD & ILLINOIS RD
20F027867 16:58:55 63 CONTACT 20XX BROADWAY
20F027861 16:59:02 30 TRAFFIC STOP S LAFAYETTE ST & E SUPERIOR ST
20F027862 17:00:39 33,34 E RUDISILL BLVD & S HANNA ST
20F027864 17:00:56 20 PROBLEM UNK 105XX WADSWORTH CT
20F027863 17:01:35 38 LOST/STOLEN 9XX BURGESS ST
20F027865 17:01:54 30 TRAFFIC STOP 31XX E WASHINGTON BLVD
20F027868 17:01:57 51 THEFT 30XX CANTERBURY BLVD
20F027866 17:03:52 30 TRAFFIC STOP LAKE AVE & INWOOD DR
20F027869 17:10:10 43 DISTURBANCE 46XX STANDISH DR
20F027871 17:10:45 96JO 1XX ESMOND ST
20F027870 17:11:40 30 TRAFFIC STOP E BERRY ST & S CLINTON ST
20F027872 17:13:33 30 TRAFFIC STOP E WASHINGTON BLVD & KITCH ST
20F027873 17:15:43 30 TRAFFIC STOP LAKE AVE & INWOOD DR
20F027874 17:16:22 43 DISTURBANCE FOX ORCHARD RUN & HUNTERS KNOLL PL
20F027875 17:18:00 30 TRAFFIC STOP W JEFFERSON BLVD & S LINDENWOOD AV
20F027876 17:18:48 30 TRAFFIC STOP 6XX S CLINTON ST
20F027877 17:19:03 33,34 BLUFFTON RD & ENGLE RD
20F027879 17:21:25 25 PD ACCIDENT S LAFAYETTE ST & E BERRY ST
20F027878 17:21:31 99 NARCOTICS BROADWAY & TAYLOR ST
20F027880 17:22:46 43 DISTURBANCE 64XX W JEFFERSON BLVD
20F027881 17:22:48 11C CAGE CAR 75XX SOUTHTOWN XING
20F027882 17:25:07 30 TRAFFIC STOP S ANTHONY BLVD & MAUMEE AVE
20F027884 17:27:08 30 TRAFFIC STOP W JEFFERSON BLVD & S LINDENWOOD AV
20F027885 17:27:50 30 TRAFFIC STOP 6XX S CLINTON ST
20F027888 17:32:19 63 CONTACT 30XX W COLISEUM BLVD
20F027889 17:33:37 30 TRAFFIC STOP S LAFAYETTE ST & E SUPERIOR ST
20F027890 17:36:14 65T SUICIDE THR 32XX ST JOE CENTER RD
20F027891 17:38:08 26 PI ACCIDENT S LAFAYETTE ST & E RUDISILL BLVD
20F027892 17:41:40 30 TRAFFIC STOP SPY RUN AVE & E SUPERIOR ST
20F027893 17:41:46 30 TRAFFIC STOP W JEFFERSON BLVD & S LINDENWOOD AV
20F027900 17:47:17 50 BURGLARY 27XX MAULDIN DR
20F027894 17:50:10 30 TRAFFIC STOP 6XX S CLINTON ST
20F027895 17:55:40 30 TRAFFIC STOP W JEFFERSON BLVD & S LINDENWOOD AV
20F027896 17:58:55 25HS HIT SKIP 24XX W MAIN ST
20F027897 18:01:04 30 TRAFFIC STOP 6XX S CLINTON ST
20F027898 18:01:55 30 TRAFFIC STOP W STATE BLVD & ST MARYS AVE
20F027916 18:02:50 51 THEFT 30XX ADAMS ST
20F027901 18:07:02 30 TRAFFIC STOP W JEFFERSON BLVD & S LINDENWOOD AV
20F027902 18:07:34 43 DISTURBANCE 76XX SOUTHTOWN XING
20F027903 18:12:10 25 PD ACCIDENT MERIDIAN ST & GREENLAWN AVE
20F027905 18:16:25 17 MOTOR CHECK 46XX GLENMARY DR
20F027904 18:17:50 30 TRAFFIC STOP S CLINTON ST & E MAIN ST
20F027906 18:20:04 30 TRAFFIC STOP W JEFFERSON BLVD & S LINDENWOOD AV
20F027907 18:20:46 30 TRAFFIC STOP 46XX E STATE BLVD
20F027914 18:21:16 37 PARKING VIOL 12XX W OAKDALE DR
20F027911 18:21:24 63 CONTACT 13XX E COOK RD
20F027908 18:21:29 30 TRAFFIC STOP LAKE AVE & INWOOD DR
20F027909 18:22:33 30 TRAFFIC STOP E WASHINGTON BLVD & KITCH ST
20F027918 18:23:25 51,35 75XX S ANTHONY BLVD
20F027912 18:24:39 25HS HIT SKIP 63XX LIMA RD
20F027910 18:24:59 96IP 29XX GOSHEN RD
20F027913 18:27:43 129 4XX W WILLIAMS ST
20F027915 18:28:01 129 S CALHOUN ST & E TILLMAN RD
20F027917 18:32:05 30 TRAFFIC STOP E WASHINGTON BLVD & KITCH ST
20F027920 18:33:44 46 DOMESTIC 8XX WOODLAND XING
20F027919 18:34:04 25 PD ACCIDENT BAXTER ST & SMITH ST
20F027921 18:37:55 30 TRAFFIC STOP REED RD & NEVADA AVE
20F027922 18:38:49 22I JUV INVEST 51XX OLIVER ST
20F027923 18:40:32 33,34 S CLINTON ST & E RUDISILL BLVD
20F027924 18:41:05 50IP BURG I/P 2XX E CREIGHTON AVE
20F027927 18:43:49 25 PD ACCIDENT LAKE AVE & LOREE ST
20F027925 18:44:09 22I JUV INVEST 70XX ELMBROOK DR
20F027926 18:44:57 63 CONTACT 66XX E STATE BLVD
20F027928 18:49:17 EMS W STATE BLVD & WELLS ST
20F027931 18:56:20 17 MOTOR CHECK 16XX E RUDISILL BLVD
20F027929 18:56:32 48,36 BEVEL AVE & EBY AVE
20F027930 18:57:06 51JO 75XX SOUTHTOWN XING
20F027932 18:59:00 25HS HIT SKIP 10XX E COLISEUM BLVD
20F027934 19:01:12 34 TRAFF HAZARD W MAIN ST & EWING ST
20F027933 19:01:58 41,36 60XX BUNT DR
20F027935 19:07:43 25 PD ACCIDENT E COLISEUM BLVD & COLDWATER RD
20F027936 19:09:08 50 BURGLARY 75XX HOPE DR
20F027937 19:12:10 43 DISTURBANCE 58XX LAKE AVE
20F027938 19:18:44 40A AUDIBLE 25XX MCDONALD ST
20F027939 19:18:59 46,96 ANDRE LN & WINSTON DR
20F027940 19:20:20 30 TRAFFIC STOP E STATE BLVD & CAREW ST
20F027941 19:20:36 34 TRAFF HAZARD 13XX RABUS DR
20F027942 19:26:34 40A AUDIBLE 20XX BROADWAY
20F027944 19:27:29 15 ASSIST 21XX HOBSON RD
20F027943 19:32:11 41 MAN DOWN 5XX W JEFFERSON BLVD
20F027945 19:34:00 27 RECKLESS DRI NEW HAVEN AVE & E SR 930
20F027946 19:40:29 51JO 58XX N CLINTON ST
20F027947 19:45:36 51 THEFT 3XX E WASHINGTON BLVD
20F027948 19:55:20 911 HANG UP 9XX WOODVIEW BLVD
20F027950 19:55:27 48 SUSPICIOUS 27XX WEST DR
20F027949 19:55:44 40A AUDIBLE 7XX PETAL WAY
20F027951 20:01:07 48 SUSPICIOUS 40XX GAYWOOD DR
20F027952 20:01:56 11C CAGE CAR 53XX COLDWATER RD
20F027953 20:04:13 61 RAPE 6XX E TABER ST
20F027954 20:05:53 40A AUDIBLE 34XX LONA DR
20F027955 20:06:44 51JO 11XX N COLISEUM BLVD
20F027956 20:11:03 15 ASSIST W JEFFERSON BLVD & S LINDENWOOD AV
20F027957 20:15:00 43 DISTURBANCE W FOSTER PKWY & FAIRFIELD AVE
20F027959 20:15:44 16,97 11XX W STATE BLVD
20F027958 20:16:48 30 TRAFFIC STOP E PETTIT AVE & WARSAW ST
20F027960 20:19:51 103 UNWANTED HESSEN CASSEL RD & MCKINNIE AVE
20F027961 20:20:28 43 DISTURBANCE 40XX WAWONAISSA TRL
20F027962 20:24:13 103 UNWANTED 9XX E WASHINGTON BLVD
20F027963 20:28:11 46,62 35XX FERNDALE DR
20F027964 20:30:49 48 SUSPICIOUS 11XX N COLISEUM BLVD
20F027965 20:30:51 51JO 10XX BROADWAY
20F027970 20:31:57 EMS 18XX HOBSON RD
20F027966 20:34:35 26 PI ACCIDENT GABLE RD & S ANTHONY BLVD
20F027967 20:34:50 20 PROBLEM UNK 26XX HOLTON AVE
20F027969 20:37:58 48 SUSPICIOUS 49XX FAIRINGTON DR
20F027968 20:38:08 46,96 28XX PENNSYLVANIA ST
20F027971 20:40:19 38 LOST/STOLEN 41XX STANTON DR
20F027972 20:45:48 40A AUDIBLE 37XX N METRO DR
20F027973 20:50:20 30 TRAFFIC STOP PARNELL AVE & E COLISEUM BLVD
20F027974 20:54:51 96JO 76XX MAEVE DR
20F027975 20:57:33 911 HANG UP 14XX MEDICAL PARK DR
20F027998 21:02:45 1 MEET 103XX MAYSVILLE RD
20F027976 21:05:22 48,36 27XX BANKS AVE
20F027977 21:05:43 26 PI ACCIDENT GOSHEN RD & INDEPENDENCE DR
20F027979 21:08:35 43,62 18XX W FOURTH ST
20F027982 21:09:40 50 BURGLARY 36XX NEW HAVEN AVE
20F027978 21:10:39 113 SHOTS FIRED E PONTIAC ST & CENTRAL DR
20F028024 21:12:46 14 WARRANT 35XX W COLISEUM BLVD
20F027980 21:14:19 HARASSMENT 47XX HEATHERWIND DR
20F027981 21:15:28 48 SUSPICIOUS 6XX W FOSTER PKWY
20F027983 21:18:01 61 RAPE 6XX E TABER ST
20F027984 21:19:59 65T SUICIDE THR 3XX W SUPERIOR ST
20F027985 21:22:37 40A AUDIBLE 77XX COLDWATER RD
20F027986 21:27:16 48,36 16XX RICHARDSON ST
20F027987 21:30:06 103 UNWANTED 9XX E WASHINGTON BLVD
20F027988 21:31:30 46,96 4XX E PONTIAC ST
20F027989 21:33:43 65A SUICIDE ATT 61XX SUMMER WIND PL
20F028014 21:34:32 46 DOMESTIC 27XX POINSETTE DR
20F027990 21:36:35 103 UNWANTED 32XX HARVESTER AVE
20F027991 21:42:46 40P PANIC ALARM 13XX HUESTIS AVE
20F027992 21:43:57 113 SHOTS FIRED 16XX REED RD
20F027993 21:44:55 40 ALARM 70XX OLD TRAIL RD
20F027994 21:51:26 43 DISTURBANCE 40XX SOUTHWAYNE AVE
20F027997 21:55:48 40A AUDIBLE 60XX STELLHORN RD
20F027995 21:57:24 48,36 31XX WELLS ST
20F027996 22:00:04 30 TRAFFIC STOP E WASHINGTON BLVD & MEYER RD
20F027999 22:02:45 25 PD ACCIDENT E WASHINGTON BLVD & S CLINTON ST
20F028000 22:06:06 25 PD ACCIDENT 4XX E WAYNE ST
20F028003 22:09:37 22I JUV INVEST 19XX BAYER AVE
20F028001 22:10:13 30 TRAFFIC STOP WELLS ST & W FERNHILL AVE
20F028002 22:11:30 103 UNWANTED 35XX BROADWAY
20F028004 22:14:49 48 SUSPICIOUS 20XX ANDREW ST
20F028005 22:24:07 48 SUSPICIOUS 62XX ST JOE CENTER RD
20F028006 22:27:57 ATL 49XX HOAGLAND AVE
20F028007 22:34:16 48,36 25XX SPY RUN AVE
20F028008 22:35:14 103 UNWANTED 3XX W SUPERIOR ST
20F028010 22:38:00 30 TRAFFIC STOP NUTTMAN AVE & BROADWAY
20F028009 22:38:02 102,TX THREATS 4XX W WILLIAMS ST
20F028011 22:46:55 113 SHOTS FIRED 3XX W SUTTENFIELD AVE
20F028013 22:48:42 51 THEFT 10XX WOODLAND PLAZA RUN
20F028012 23:01:03 23JO 67XX RAMBLEWOOD DR
20F028015 23:12:28 48 SUSPICIOUS 45XX NEWAYGO RD
20F028016 23:18:11 30 TRAFFIC STOP TENNESSEE AVE & KENTUCKY AVE
20F028018 23:19:47 44LM 12XX SHERMAN BLVD
20F028017 23:20:08 129 SWEET CIDER RD & MILLSTONE DR
20F028023 23:23:31 15 ASSIST 9XX LINCOLN AVE
20F028019 23:23:47 33J LOCKED OUT 14XX S WINDSOR WOODS BLVD
20F028020 23:27:21 14 WARRANT 14XX CAPITOL AVE
20F028021 23:32:23 30 TRAFFIC STOP E COLISEUM BLVD & N CLINTON ST
20F028022 23:33:25 30 TRAFFIC STOP LAKE AVE & CRESCENT AVE
20F028025 23:55:10 30 TRAFFIC STOP S HANNA ST & MADISON ST
20F028026 23:55:53 30 TRAFFIC STOP LAKE AVE & TECUMSEH ST